Home > Weather > Norfolk > Past weeks

Flag for U.S.A. Weather for the Past 2 Weeks in Norfolk, Virginia, U.S.A.

Now
29 °F

Mostly cloudy.


Feels Like: 24 °F
Forecast: 22 / 31 °F
Wind: 5 mph from Northwest

Location: Norfolk Naval Air Station

Current Time: Feb 12, 2016 at 8:15:55 PM

Latest Report: Feb 12, 2016 at 6:59 PM


Visibility: 9 mi

Pressure: 30.04 "Hg

Humidity: 79%

Dew point: 23 °F

Location of NorfolkLocation

Historic Weather in Norfolk — Graph

°F

Norfolk Temperature Yesterday

Maximum temperature yesterday: 35 °F (at 2:59 PM)
Minimum temperature yesterday: 25 °F (at 6:59 AM)
Average temperature yesterday: 30 °F

High & Low Weather Summary for the Past Weeks

 TemperatureHumidityPressure
High76 °F (Feb 3, 11:59 AM)94% (Feb 4, 1:59 AM)30.49 "Hg (Feb 4, 1:59 AM)
Low25 °F (Feb 11, 6:59 AM)26% (Jan 30, 1:59 PM)29.55 "Hg (Feb 9, 3:59 AM)
Average44 °F62%30.02 "Hg
* Reported Jan 28 6:59 PM — Feb 12 6:59 PM, Norfolk, Weather by CustomWeather, © 2016

Note: Actual official high and low records may vary slightly from our data, if they occured in-between our weather recording intervals... More about our weather records

Advertising

Norfolk Weather History for the Previous 24 Hours

 ConditionsComfort  
Time TempWeatherWind HumidityBarometerVisibility
6:59 PM
Fri, Feb 12
29 °FMostly cloudy.5 mph79%30.04 "Hg9 mi
5:59 PM28 °FOvercast.No wind81%30.02 "Hg9 mi
4:59 PM28 °FLight snow. Ice fog.3 mph81%30.06 "Hg3 mi
3:59 PM28 °FLight snow. Ice fog.7 mph81%30.09 "Hg1 mi
3:02 PM29 °FLight snow. Ice fog.6 mph69%30.10 "Hg1 mi
1:59 PM31 °FMostly cloudy.6 mph49%30.15 "Hg10 mi
12:59 PM30 °FMostly cloudy.6 mph49%30.19 "Hg10 mi
11:59 AM31 °FMostly cloudy.8 mph47%30.24 "Hg10 mi
10:59 AM29 °FPartly sunny.7 mph49%30.27 "Hg10 mi
9:59 AM29 °FPartly sunny.7 mph49%30.32 "Hg10 mi
8:59 AM30 °FBroken clouds.7 mph45%30.33 "Hg10 mi
7:59 AM28 °FScattered clouds.5 mph51%30.33 "Hg10 mi
6:59 AM25 °FPassing clouds.5 mph55%30.32 "Hg10 mi
5:59 AM25 °FPassing clouds.6 mph48%30.35 "Hg10 mi
4:59 AM26 °FPassing clouds.8 mph46%30.34 "Hg10 mi
3:59 AM26 °FPassing clouds.8 mph46%30.34 "Hg10 mi
2:59 AM26 °FClear.10 mph46%30.34 "Hg10 mi
1:59 AM27 °FClear.10 mph46%30.35 "Hg10 mi
12:59 AM28 °FClear.7 mph41%30.34 "Hg10 mi
11:59 PM
Thu, Feb 11
28 °FClear.12 mph43%30.34 "Hg10 mi
10:59 PM30 °FClear.8 mph43%30.32 "Hg10 mi
9:59 PM31 °FClear.14 mph31%30.31 "Hg10 mi
8:59 PM31 °FClear.13 mph36%30.29 "Hg10 mi
Weather by CustomWeather, © 2016

See weather overviewHow to use our weather pages